Regional Weather Roundup
Issued by NWS Northern Indiana

Home | Current Version | Previous Version | Graphics & Text | Print | Product List | Glossary On
Versions: 1 2 3 4 5 6 7 8 9 10 11 12 13 14 15 16 17 18 19 20 21 22 23 24 25 26 27 28 29 30 31 32 33 34 35 36 37 38 39 40 41 42 43 44 45 46 47 48 49 50
770
ASUS43 KIWX 222210
RWRIWX

KIWX WEATHER ROUNDUP
NATIONAL WEATHER SERVICE NORTHERN INDIANA
600 PM EDT WED MAR 22 2017

NOTE: "FAIR" INDICATES FEW OR NO CLOUDS BELOW 12,000 FEET WITH NO
SIGNIFICANT WEATHER AND/OR OBSTRUCTIONS TO VISIBILITY.

* THESE STATIONS ARE NOT UNDER NWS QUALITY CONTROL. THEY ALSO MAY NOT
  REPORT WEATHER SUCH AS PRECIPITATION OR FOG.

INZ001>027-222300-
NORTHERN INDIANA

CITY           SKY/WX    TMP DP  RH WIND       PRES   REMARKS
GARY*          MOSUNNY   34  18  51 NE8       30.54F WCI  27
VALPARAISO     SUNNY     39  20  46 N6        30.50F
MICHIGAN CITY* SUNNY     32  21  64 N7        30.53F WCI  26
LAPORTE*       SUNNY     37  15  39 SE5       30.51F
KNOX*          SUNNY     37 -17   9 NE8       30.50F
SOUTH BEND     SUNNY     38  10  31 E7        30.51F
ELKHART*       SUNNY     37  10  32 NE3       30.51F
GOSHEN         SUNNY     38  10  31 E7        30.51F
MONTICELLO*    SUNNY     39  15  37 E7        30.48F
LOGANSPORT*    SUNNY     37  18  44 E9        30.50F
ROCHESTER*     SUNNY     39  12  33 E8        30.50F
WARSAW*        SUNNY     36  12  38 E6        30.50F
ANGOLA*        SUNNY     36  21  55 CALM      30.50F
FORT WAYNE     MOSUNNY   36  14  40 E12       30.51F
HUNTINGTON*    SUNNY     36  14  40 NE8       30.50F
PERU/GRISSOM   SUNNY     38  16  41 E12       30.47F
MARION*        SUNNY     36  21  53 E12G18    30.50S

$$
INZ028>050-222300-
CENTRAL INDIANA

CITY           SKY/WX    TMP DP  RH WIND       PRES   REMARKS
LAFAYETTE      SUNNY     38  19  46 E15       30.48F
KOKOMO*        SUNNY     37  20  50 E10G20    30.50F
MUNCIE*        SUNNY     39  21  48 E10       30.48F
INDIANAPOLIS   MOSUNNY   41  17  38 NE13      30.45F

$$
MIZ043>046-050>051-056>058-064>065-071>073-077>080-222300-
SOUTHWEST LOWER MICHIGAN

CITY           SKY/WX    TMP DP  RH WIND       PRES   REMARKS
BATTLE CREEK   SUNNY     38   9  30 VRB5      30.51F
BENTON HARBOR  SUNNY     33  17  51 VRB7      30.53F WCI  27
COLDWATER*     SUNNY     36   8  31 N3        30.50F
HILLSDALE*     SUNNY     34  10  37 CALM      30.49F
HOLLAND        SUNNY     34  19  54 NW8       30.53F WCI  27
GRAND RAPIDS   MOSUNNY   36  11  35 S9        30.52F
KALAMAZOO      SUNNY     38   7  27 SE3       30.51F
STURGIS*       SUNNY     35  10  34 E6        30.50F WCI  30
THREE RIVERS*  FAIR      35  10  35 CALM      30.52F

$$
OHZ001>008-015>018-024>025-222300-
NORTHWEST OHIO

CITY           SKY/WX    TMP DP  RH WIND       PRES   REMARKS
WAUSEON*       FAIR      36  10  35 CALM      30.53S
DEFIANCE       SUNNY     36  14  40 NE10      30.53F
FINDLAY        SUNNY     35  13  40 NE6       30.52S WCI  30
TOLEDO EXPRESS SUNNY     36  12  37 NW7       30.53S
TOLEDO METCALF SUNNY     33  16  49 E6        30.56S WCI  28
LIMA           SUNNY     35  18  49 E9        30.50S WCI  28

$$
AND FOR LAKE MICHIGAN COASTAL AND OPEN LAKE BUOY OBSERVATIONS

STATION/POSITION TEMP    WIND        PRES    VSBY  WAVE
                 AIR SEA DIR/SP/G                  HT/PER
                 (F)     (DEG/KT/KT) (MB)    (MI)  (FT/S)
CALUMET HARBOR    30      10/  8/ 10 1033.0F
MICHIGAN CITY     29      10/  8/  9   N/A
BURNS HARBOR      29      40/  9/ 10 1034.2F
SAINT JOSEPH      31      10/  9/ 12 1034.2

$$
&&




USA.gov is the U.S. government's official web portal to all federal, state and local government web resources and services.